Preview of NWS' New Version of Forecast
This preview is not operational and should not be used for support decisions.

Regional Weather Roundup (RWR)

Issued by National Weather Service (NWS)

                            
000
ASUS43 KMKX 221059
RWRWI 

WISCONSIN REGIONAL WEATHER ROUNDUP
NATIONAL WEATHER SERVICE MILWAUKEE/SULLIVAN WI
600 AM CDT MON APR 22 2019

NOTE: "FAIR" INDICATES FEW OR NO CLOUDS BELOW 12,000 FEET WITH NO
SIGNIFICANT WEATHER AND/OR OBSTRUCTIONS TO VISIBILITY.

WIZ001-002-006>008-014>016-023>028-221200-
NORTHWEST WISCONSIN
  
CITY           SKY/WX    TMP DP  RH WIND       PRES   REMARKS
SUPERIOR ARPT  LGT RAIN  36  34  92 NE10      30.12R WCI  28          
ASHLAND        MIX PCPN  37  37 100 NE14      30.09R WCI  28          
HAYWARD        RAIN      41  40  96 NE12      30.01F FOG              
SIREN          LGT RAIN  42  41  95 NE8       30.01R                  
CUMBERLAND     LGT RAIN  41  41 100 NE12      29.97F                  
RICE LAKE      CLOUDY    45  37  74 N9        29.98S                  
CHETEK         CLOUDY    46  42  86 NE3       29.96F                  
LADYSMITH      MOCLDY    44  43  95 NE9       29.99F                  
EAU CLAIRE     NOT AVBL                                               
MENOMONIE      CLOUDY    46  33  60 NE7       29.94R                  
NEW RICHMOND   CLOUDY    46  41  83 NE7       29.93S                  
OSCEOLA        CLOUDY    44  42  93 N7        29.98S                  
$$
 
WIZ003>005-009-010-017-018-221200-
NORTH CENTRAL WISCONSIN
  
CITY           SKY/WX    TMP DP  RH WIND       PRES   REMARKS
MANITOWISH WTR LGT RAIN  38  38 100 NE10      30.01F WCI  31          
ARBOR VITAE    LGT RAIN  42  40  93 E6        30.02R                  
WOODRUFF       LGT RAIN  42  40  93 E6        30.02R                  
RHINELANDER    CLOUDY    43  35  73 E7        30.02S                  
EAGLE RIVER    LGT RAIN  40  39  98 N5        30.04R                  
LAND O LAKES   CLOUDY    39  39 100 CALM      30.07R FOG              
PHILLIPS       CLOUDY    41  41 100 N8        30.00S                  
TOMAHAWK       CLOUDY    40  38  91 CALM      30.01S                  
MEDFORD        MOCLDY    42  34  75 E12       29.97S                  
MERRILL        CLOUDY    43  36  76 E7        30.00F                  
$$
 
WIZ029-030-035-036-043>047-221200-
CENTRAL WISCONSIN
  
CITY           SKY/WX    TMP DP  RH WIND       PRES   REMARKS
WAUSAU         NOT AVBL                                               
MOSINEE        MOCLDY    43  34  70 E10       29.99S                  
MARSHFIELD     FAIR      44  35  70 E13       29.95F                  
STEVENS POINT  CLOUDY    42  32  67 E8        29.99F                  
WAUPACA        MOCLDY    44  35  70 NE5       30.01S                  
WAUTOMA        FAIR      45  37  73 NE6       29.99S                  
WISC RAPIDS    MOCLDY    46  33  60 E10       29.97F                  
CAMP DOUGLAS   NOT AVBL                                               
$$
 
WIZ011>013-019>022-031-037>040-048>050-221200-
NORTHEAST WISCONSIN
  
CITY           SKY/WX    TMP DP  RH WIND       PRES   REMARKS
ANTIGO         LGT RAIN  43  33  69 E9        30.01F                  
SHAWANO        CLOUDY    46  36  69 NE8       30.02F                  
OCONTO         FAIR      43  35  73 CALM      30.04R                  
STURGEON BAY   CLOUDY    43  37  79 NE3       30.03S                  
GREEN BAY      FAIR      45  37  73 NE8       30.02F                  
MANITOWOC      CLOUDY    46  39  76 E3        30.03R                  
APPLETON       MOCLDY    43  32  65 NE7       29.99F                  
CLINTONVILLE   CLOUDY    44  34  68 NE7       30.02S                  
OSHKOSH        FAIR      44  38  79 NE8       29.99S                  
$$
 
WIZ032>034-041-042-053>061-221200-
SOUTHWEST WISCONSIN
  
CITY           SKY/WX    TMP DP  RH WIND       PRES   REMARKS
LA CROSSE      FAIR      59  44  57 E5        29.87S                  
SPARTA         FAIR      55  45  69 CALM      29.92R                  
VIROQUA        FAIR      58  46  63 S7        29.91R                  
BOSCOBEL       FAIR      54  44  69 CALM      29.92R                  
PRAIRIE DU CHI FAIR      59  44  57 E7        29.89S                  
PLATTEVILLE    FAIR      58  47  66 SE6       29.93R                  
$$

WIZ056-057-062-063-064-067-068-221200-
SOUTH CENTRAL WISCONSIN
  
CITY           SKY/WX    TMP DP  RH WIND       PRES   REMARKS
REEDSBURG      FAIR      58  44  58 CALM      29.92S                  
BARABOO/DELLS  FAIR      57  42  57 S10       29.93S                  
LONE ROCK      NOT AVBL                                               
MINERAL POINT  FAIR      55  45  67 SE9       29.94R                  
MADISON        MOCLDY    57  42  57 S9        29.96S                  
MIDDLETON      FAIR      58  42  55 S5        29.96S                  
WATERTOWN      FAIR      57  41  55 S8        29.98S                  
MONROE         FAIR      55  41  60 MISG      29.97R                  
JANESVILLE     MOCLDY    57  41  54 SE10      29.98S                  
$$
 
WIZ051-052-058>065-066-070>072-221200-
SOUTHEAST WISCONSIN
  
CITY           SKY/WX    TMP DP  RH WIND       PRES   REMARKS
MILWAUKEE      MOCLDY    56  37  49 S8        30.01S                  
WAUKESHA       PTCLDY    57  36  44 S9        30.01S                  
MILWAUKEE/TIMM FAIR      55  34  44 SE5       30.02R                  
RACINE         FAIR      50  38  63 S9        30.04S                  
KENOSHA        FAIR      55  40  56 S7        30.02F                  
FOND DU LAC    FAIR      52  42  69 NE6       29.99R                  
SHEBOYGAN      MOCLDY    49  39  68 S5        30.00F                  
WEST BEND      FAIR      50  37  62 E5        30.00F                  
JUNEAU         FAIR      55  40  56 S8        29.99S                  
$$

LSZ147-162-221200-
LAKE SUPERIOR
  
STATION/POSITION TIME  TEMP    WIND        PRES    WAVE
                       AIR SEA DIR/SP/G            HT/PER
                 (UTC) (F)     (DEG/KT/KT) (MB)    (FT/S)
$$
 
LMZ867-665-643>646-221200-
LAKE MICHIGAN
  
STATION/POSITION TIME  TEMP    WIND        PRES    WAVE
                       AIR SEA DIR/SP/G            HT/PER
                 (UTC) (F)     (DEG/KT/KT) (MB)    (FT/S)
NORTHPORT PIER   1040   39      70/  7/  8 1017.6S
KEWAUNEE LAKESHO 1024   44      CALM  /  1 1016.0
SHEBOYGAN LAKESH 1000   45     180/ 19/ 20 1016.4F
MILWAUKEE LAKESH 1030   43                   N/A
KENOSHA   LAKESH 1000   45     180/ 11/ 13 1016.9
$$

TC  - TEMPERATURE IN CELSIUS
VSB - VISIBILITY IN STATUTE MILES
WCI - WIND CHILL INDEX
HX  - HEAT INDEX